Flag for Greece Weather past 2 weeks in Ilioupoli, Greece

Now
48 °F

Passing clouds.


Feels Like: 48 °F
Forecast: 53 / 65 °F
Wind: 2 mph from North

Location: Eleftherios Venizelos International Airport

Current Time: Mar 30, 2015 at 5:41:24 AM

Latest Report: Mar 30, 2015 at 4:50 AM


Visibility: N/A

Pressure: 29.86 "Hg

Humidity: 82%

Dew point: 43 °F

Location of IlioupoliLocation

Historic Weather in Ilioupoli — Graph

°F

Ilioupoli temperature yesterday

Maximum temperature yesterday: 61 °F (at 2:20 PM)
Minimum temperature yesterday: 52 °F (at 1:20 AM)
Average temperature yesterday: 55 °F

Past Weeks' High & Low Weather Summary

 TemperatureHumidityPressure
High66 °F (Mar 27, 12:20 PM)100% (Mar 26, 9:50 PM)30.45 "Hg (Mar 26, 9:50 PM)
Low34 °F (Mar 22, 3:50 AM)35% (Mar 21, 10:50 AM)29.56 "Hg (Mar 28, 3:20 AM)
Average51 °F71%30.07 "Hg
* Reported Mar 15 3:20 AM — Mar 30 4:20 AM, Ilioupoli, Weather by CustomWeather, © 2015

Note: Actual official high and low records may vary slightly from our data, if they occured in-between our weather recording intervals... More about our weather records

Advertising

Ilioupoli weather history for previous 24 hours

 ConditionsComfort  
Time TempWeatherWind HumidityBarometerVisibility
4:20 AM
Mon, Mar 30
48 °FPassing clouds.No wind82%29.86 "HgN/A
3:50 AM50 °FPassing clouds.2 mph82%29.86 "HgN/A
3:20 AM50 °FPassing clouds.No wind88%29.86 "HgN/A
2:50 AM48 °FPassing clouds.No wind87%29.89 "HgN/A
2:20 AM48 °FPassing clouds.2 mph82%29.86 "HgN/A
1:50 AM50 °FPassing clouds.No wind82%29.86 "HgN/A
1:20 AM50 °FPassing clouds.2 mph82%29.89 "HgN/A
12:50 AM52 °FPassing clouds.2 mph82%29.89 "HgN/A
11:50 PM
Sun, Mar 29
52 °FPassing clouds.3 mph82%29.89 "HgN/A
11:20 PM52 °FPassing clouds.3 mph82%29.86 "HgN/A
10:50 PM52 °FPassing clouds.1 mph82%29.86 "HgN/A
10:20 PM54 °FPassing clouds.1 mph77%29.86 "HgN/A
9:50 PM54 °FPassing clouds.5 mph77%29.86 "HgN/A
9:20 PM54 °FPassing clouds.1 mph82%29.86 "HgN/A
8:50 PM54 °FPassing clouds.No wind77%29.83 "HgN/A
8:20 PM55 °FBroken clouds.1 mph77%29.83 "HgN/A
7:50 PM55 °FBroken clouds.2 mph77%29.80 "HgN/A
7:20 PM55 °FBroken clouds.3 mph72%29.80 "HgN/A
6:50 PM57 °FBroken clouds.3 mph67%29.80 "HgN/A
6:20 PM57 °FBroken clouds.5 mph67%29.80 "HgN/A
5:50 PM57 °FBroken clouds.2 mph72%29.80 "HgN/A
5:20 PM57 °FBroken clouds.5 mph72%29.80 "HgN/A
4:50 PM57 °FBroken clouds.3 mph67%29.80 "HgN/A
4:20 PM57 °FBroken clouds.5 mph67%29.80 "HgN/A
3:50 PM57 °FBroken clouds.5 mph67%29.77 "HgN/A
3:20 PM59 °FBroken clouds.7 mph63%29.77 "HgN/A
2:50 PM59 °FBroken clouds.13 mph63%29.77 "HgN/A
2:20 PM61 °FBroken clouds.13 mph55%29.77 "HgN/A
1:50 PM59 °FBroken clouds.12 mph59%29.77 "HgN/A
1:20 PM59 °FBroken clouds.9 mph59%29.77 "HgN/A
12:50 PM59 °FBroken clouds.9 mph63%29.77 "HgN/A
12:20 PM59 °FBroken clouds.9 mph63%29.77 "HgN/A
11:50 AM57 °FBroken clouds.10 mph67%29.77 "HgN/A
11:20 AM57 °FBroken clouds.10 mph67%29.77 "HgN/A
10:50 AM57 °FBroken clouds.5 mph63%29.77 "HgN/A
10:20 AM55 °FBroken clouds.1 mph77%29.77 "HgN/A
9:50 AM54 °FBroken clouds.1 mph77%29.77 "HgN/A
9:20 AM54 °FBroken clouds.No wind77%29.74 "HgN/A
8:50 AM52 °FBroken clouds.2 mph82%29.74 "HgN/A
8:20 AM52 °FPartly sunny.2 mph82%29.74 "HgN/A
7:50 AM52 °FLight rain. Passing clouds.3 mph82%29.74 "HgN/A
7:20 AM52 °FLight rain. Passing clouds.1 mph82%29.71 "HgN/A
6:50 AM52 °FLight rain. Passing clouds.6 mph82%29.71 "HgN/A
6:20 AM52 °FLight rain. Passing clouds.6 mph88%29.71 "HgN/A
5:50 AM52 °FLight rain. Passing clouds.5 mph88%29.71 "HgN/A
5:20 AM52 °FPassing clouds.9 mph88%29.71 "HgN/A
Weather by CustomWeather, © 2015

See weather overviewHow to use our weather pages